[[{"header":{"parameterUnit":"m.s-1","parameterCategory":1,"la1":30.2991,"la2":30.254,"lo1":-89.0895,"lo2":-89.0444,"dy":0.0017,"dx":0.0017,"nx":28,"ny":28,"refTime":"2025-04-20T03:00:00:Z","depth":0,"parameterNumber":2,"parameterNumberName":"U-component_of_WINDS"},"data":[0,0,0,0,0,0,0,0,0,0,0,0,0,0,0,0,0,0,0,0,0,0,0,0,0,0,0,0,0,0,0,0,0,0,0,0,0,0,0,0,0,0,0,0,0,0,0,0,0,0,0,0,0,0,0,0,0,0,-3.2033,-3.2034,0,-3.2158,-3.2159,-3.216,-3.218,-3.2179,-3.2177,-3.2176,-3.2303,-3.2308,-3.2312,0,0,0,0,0,0,0,0,0,0,0,0,0,-3.181,-3.1813,-3.2032,-3.2034,-3.2036,-3.2157,-3.2159,-3.2161,-3.218,-3.2178,-3.2177,-3.2176,-3.2302,-3.2307,-3.2312,0,0,0,0,0,0,0,0,0,0,0,0,0,-3.1918,-3.1815,-3.2032,-3.206,-3.2063,-3.2157,-3.2159,-3.2161,-3.218,-3.2178,-3.2177,-3.2175,-3.23,-3.2307,-3.2313,-3.2388,0,0,-3.2333,-3.2336,0,0,0,0,0,0,0,0,-3.1911,-3.1926,-3.2054,-3.2058,-3.2062,-3.2151,-3.2127,-3.2237,-3.2181,-3.2136,-3.2176,-3.2174,-3.2254,-3.2264,-3.2291,-3.2393,-3.2399,-3.2334,-3.2338,-3.2341,-3.2343,0,0,0,0,0,0,0,-3.1904,-3.192,-3.2082,-3.2056,-3.2061,-3.2066,-3.2079,-3.2148,-3.2203,-3.214,-3.2141,-3.2156,-3.2256,-3.2285,-3.2295,-3.2401,-3.2334,-3.234,-3.2344,-3.2346,-3.257,-3.2572,0,0,0,0,0,0,-3.1892,-3.1914,-3.2078,-3.2086,-3.1981,-3.2071,-3.2086,-3.2124,-3.2202,-3.2212,-3.2157,-3.2156,-3.2275,-3.2287,-3.2299,-3.2391,-3.2341,-3.2347,-3.2351,-3.2568,-3.2571,-3.2573,0,0,0,0,0,0,-3.1887,-3.1906,-3.2073,-3.2,-3.2022,-3.2077,-3.212,-3.2128,-3.2157,-3.2215,-3.2225,-3.2177,-3.2274,-3.229,-3.2365,-3.2395,-3.235,-3.2356,-3.2566,-3.2569,-3.2572,-3.2575,0,0,0,0,0,0,-3.188,-3.1904,-3.1933,-3.2001,-3.2026,-3.2137,-3.2121,-3.2131,-3.2168,-3.2168,-3.2236,-3.2246,-3.2274,-3.2355,-3.2372,-3.2404,-3.2361,-3.2563,-3.2567,-3.2571,-3.2572,-3.2578,-3.2582,0,0,0,0,0,-3.1872,-3.1929,-3.1934,-3.1954,-3.2063,-3.2139,-3.2153,-3.2184,-3.2171,-3.22,-3.2238,-3.2244,-3.239,-3.2363,-3.2382,-3.2416,-3.2562,-3.2566,-3.257,-3.257,-3.2577,-3.2582,0,0,0,0,0,0,-3.1862,-3.1938,-3.1945,-3.2025,-3.2076,-3.2142,-3.218,-3.219,-3.2245,-3.2242,-3.2278,-3.2293,-3.2367,-3.24,-3.2368,-3.2492,-3.2475,-3.2483,-3.2468,-3.2475,-3.2479,-3.2469,-3.2367,0,0,0,0,0,-3.187,-3.1925,-3.1988,-3.2053,-3.2078,-3.2125,-3.2159,-3.2178,-3.2232,-3.2253,-3.2296,-3.2347,-3.2405,-3.2442,-3.2498,-3.2578,-3.2593,-3.2611,-3.2616,-3.2619,-3.2626,-3.267,-3.2678,-3.2587,-3.2587,-3.2587,0,0,-3.1885,-3.1933,-3.1966,-3.2052,-3.2094,-3.215,-3.2142,-3.2202,-3.2244,-3.2262,-3.2336,-3.237,-3.2429,-3.2507,-3.2544,-3.2536,-3.2654,-3.2625,-3.2628,-3.2632,-3.2675,-3.2684,-3.2691,-3.259,-3.259,-3.2589,0,0,-3.1941,-3.1984,-3.2042,-3.2084,-3.2147,-3.2178,-3.2192,-3.2257,-3.228,-3.2355,-3.2369,-3.242,-3.2518,-3.256,-3.2594,-3.2668,-3.2675,-3.2685,-3.271,-3.2753,-3.276,-3.2766,-3.2791,-3.28,-3.2691,-3.2691,-3.2691,0,-3.1952,-3.2038,-3.2071,-3.2131,-3.2168,-3.2187,-3.2246,-3.2285,-3.2363,-3.2388,-3.2379,-3.2503,-3.2545,-3.2632,-3.265,-3.2678,-3.2695,-3.2676,-3.2756,-3.2763,-3.277,-3.2794,-3.2803,-3.2692,-3.2692,-3.2692,-3.2692,0,-3.2048,-3.2107,-3.2147,-3.2222,-3.2264,-3.2323,-3.2364,-3.2403,-3.242,-3.2451,-3.2527,-3.2578,-3.2645,-3.2667,-3.2684,-3.2758,-3.2751,-3.2749,-3.2732,-3.2778,-3.2802,-3.2812,-3.2693,-3.2693,-3.2693,-3.2693,0,0,-3.21,-3.2193,-3.2207,-3.2241,-3.2312,-3.2358,-3.2419,-3.2484,-3.2516,-3.257,-3.262,-3.2704,-3.2702,-3.2741,-3.2762,-3.28,-3.2854,-3.2793,-3.2795,-3.2802,-3.2938,-3.2938,-3.2948,-3.286,-3.2862,-3.2864,-3.2932,0,-3.2164,-3.2272,-3.2303,-3.2394,-3.2449,-3.2468,-3.2521,-3.257,-3.2601,-3.2652,-3.2687,-3.2745,-3.274,-3.2763,-3.2801,-3.2839,-3.2881,-3.2835,-3.2907,-3.2909,-3.289,-3.2961,-3.2961,-3.3023,-3.2942,-3.2943,-3.2945,0,-3.2253,-3.2308,-3.2403,-3.2468,-3.2492,-3.2538,-3.2601,-3.265,-3.2706,-3.2726,-3.277,-3.2788,-3.2852,-3.2832,-3.2919,-3.2887,-3.2919,-3.2942,-3.2945,-3.2952,-3.2928,-3.2968,-3.3044,-3.3053,-3.296,-3.2958,-3.2957,0,-3.228,-3.2378,-3.2448,-3.2477,-3.2554,-3.2586,-3.2619,-3.2674,-3.2711,-3.2766,-3.2791,-3.2852,-3.2886,-3.2933,-3.2967,-3.295,-3.3052,-3.3035,-3.3069,-3.3069,-3.3088,-3.3086,-3.3169,-3.3111,-3.3111,-3.3111,-3.3111,0,-3.2347,-3.2405,-3.2461,-3.2504,-3.2569,-3.2605,-3.2669,-3.2703,-3.2752,-3.2801,-3.2823,-3.2869,-3.2912,-3.2964,-3.2992,-3.306,-3.3075,-3.3093,-3.3099,-3.309,-3.3088,-3.311,-3.3106,-3.3113,-3.3113,-3.3112,-3.3112,0,-3.2388,-3.2428,-3.2506,-3.2572,-3.259,-3.2635,-3.2692,-3.2734,-3.2767,-3.283,-3.2847,-3.2898,-3.296,-3.3,-3.3079,-3.3098,-3.3171,-3.3177,-3.3152,-3.3155,-3.3187,-3.3183,-3.3286,-3.3301,-3.3234,-3.3234,-3.3235,0,-3.2427,-3.2472,-3.2544,-3.2578,-3.2612,-3.2668,-3.2707,-3.2744,-3.2783,-3.2851,-3.2885,-3.2949,-3.3002,-3.3101,-3.3145,-3.3205,-3.3212,-3.3244,-3.3221,-3.3211,-3.3211,-3.3207,-3.3212,-3.3247,-3.3248,-3.3248,-3.3248,0,-3.2493,-3.2511,-3.2565,-3.2627,-3.2672,-3.2723,-3.2773,-3.2801,-3.2847,-3.289,-3.2954,-3.2995,-3.3076,-3.3139,-3.3204,-3.3238,-3.3251,-3.3256,-3.3267,-3.3257,-3.324,-3.3249,-3.3161,-3.3253,-3.3252,-3.3252,-3.3252,-3.3252,-3.2534,-3.2574,-3.2631,-3.2691,-3.2733,-3.2779,-3.2822,-3.2861,-3.2915,-3.2984,-3.3003,-3.307,-3.3125,-3.3214,-3.3249,-3.3302,-3.3298,-3.3314,-3.3318,-3.3321,-3.3321,-3.3233,-3.3314,-3.3314,-3.3314,-3.3314,-3.3314,0,-3.26,-3.2637,-3.2692,-3.2762,-3.2809,-3.2818,-3.2874,-3.2913,-3.2971,-3.3022,-3.3074,-3.3147,-3.3209,-3.3258,-3.3321,-3.3354,-3.3361,-3.3369,-3.3366,-3.3374,-3.3321,-3.3305,-3.3362,-3.3362,-3.3362,-3.3362,-3.3362,-3.3362,-3.2639,-3.2708,-3.2732,-3.2822,-3.286,-3.2925,-3.2956,-3.2999,-3.304,-3.3121,-3.3172,-3.3204,-3.3254,-3.3321,-3.3378,-3.3391,-3.3412,-3.3419,-3.3433,-3.3383,-3.3377,-3.3372,-3.3357,-3.3424,-3.3424,-3.3481,-3.3481,-3.3481]},{"header":{"parameterUnit":"m.s-1","parameterCategory":1,"la1":30.2991,"la2":30.254,"lo1":-89.0895,"lo2":-89.0444,"dy":0.0017,"dx":0.0017,"nx":28,"ny":28,"refTime":"2025-04-20T03:00:00:Z","depth":0,"parameterNumber":3,"parameterNumberName":"V-component_of_WINDS"},"data":[0,0,0,0,0,0,0,0,0,0,0,0,0,0,0,0,0,0,0,0,0,0,0,0,0,0,0,0,0,0,0,0,0,0,0,0,0,0,0,0,0,0,0,0,0,0,0,0,0,0,0,0,0,0,0,0,0,0,3.8939,3.894,0,3.9039,3.9041,3.9042,3.9021,3.9019,3.9018,3.9016,3.9118,3.9123,3.9127,0,0,0,0,0,0,0,0,0,0,0,0,0,3.8728,3.8732,3.8938,3.894,3.8941,3.9039,3.9041,3.9042,3.9022,3.9019,3.9017,3.9015,3.9117,3.9122,3.9127,0,0,0,0,0,0,0,0,0,0,0,0,0,3.8823,3.8734,3.8938,3.8943,3.8944,3.9039,3.9041,3.9042,3.9022,3.9019,3.9017,3.9014,3.9115,3.9121,3.9128,3.9224,0,0,3.9148,3.9151,0,0,0,0,0,0,0,0,3.8818,3.8831,3.8941,3.8943,3.8944,3.9015,3.9004,3.9103,3.9023,3.8992,3.9016,3.9013,3.9086,3.9095,3.912,3.9229,3.9234,3.9149,3.9153,3.9156,3.9158,0,0,0,0,0,0,0,3.8811,3.8827,3.8978,3.8942,3.8945,3.894,3.895,3.9023,3.9053,3.8995,3.8994,3.9006,3.9086,3.9113,3.9122,3.9235,3.9149,3.9155,3.9159,3.9161,3.9431,3.9434,0,0,0,0,0,0,3.8803,3.8821,3.8975,3.8981,3.8873,3.8946,3.8957,3.8995,3.9053,3.9059,3.9008,3.9005,3.9103,3.9114,3.9126,3.9244,3.9156,3.9162,3.9166,3.9428,3.9432,3.9435,0,0,0,0,0,0,3.8799,3.8817,3.8971,3.8901,3.892,3.8952,3.8995,3.8999,3.9026,3.9063,3.9068,3.903,3.9102,3.9116,3.9201,3.9247,3.9165,3.9171,3.9424,3.9429,3.9433,3.9481,0,0,0,0,0,0,3.8793,3.8816,3.8853,3.8902,3.8924,3.9045,3.8998,3.9002,3.9037,3.9034,3.9085,3.9091,3.9101,3.9191,3.9207,3.9255,3.9176,3.942,3.9426,3.9432,3.9475,3.9486,3.9496,0,0,0,0,0,3.8786,3.8861,3.8855,3.8873,3.8971,3.9047,3.906,3.907,3.9041,3.9079,3.9103,3.9089,3.9239,3.92,3.9218,3.9268,3.9417,3.9425,3.9432,3.947,3.9484,3.9496,0,0,0,0,0,0,3.8815,3.8868,3.8861,3.8955,3.8997,3.9044,3.9091,3.9084,3.9135,3.9129,3.914,3.9151,3.9238,3.9261,3.9216,3.9366,3.9324,3.9335,3.9347,3.9361,3.9371,3.9364,3.9182,0,0,0,0,0,3.8833,3.8891,3.8933,3.9012,3.9034,3.9059,3.9092,3.9097,3.9141,3.9158,3.9188,3.9231,3.9288,3.9326,3.938,3.9478,3.949,3.9522,3.9532,3.9541,3.9551,3.9606,3.9621,3.9459,3.9459,3.9458,0,0,3.887,3.8906,3.8941,3.9019,3.9052,3.9112,3.9074,3.9138,3.9183,3.9168,3.925,3.9274,3.9322,3.9415,3.9457,3.9437,3.9598,3.955,3.9556,3.9562,3.9615,3.963,3.9644,3.9463,3.9463,3.9462,0,0,3.8968,3.9,3.907,3.9105,3.9156,3.9172,3.9189,3.9238,3.9253,3.9336,3.9326,3.938,3.9477,3.9513,3.9544,3.9657,3.9647,3.9675,3.973,3.9784,3.9797,3.9808,3.985,3.9865,3.9684,3.9684,3.9684,0,3.9007,3.9097,3.9107,3.9174,3.9209,3.9198,3.927,3.9303,3.9369,3.9393,3.937,3.9494,3.9526,3.9627,3.9655,3.968,3.97,3.9669,3.9794,3.9806,3.9817,3.9857,3.9873,3.9687,3.9687,3.9687,3.9686,0,3.9144,3.9207,3.9257,3.9323,3.9363,3.9432,3.9452,3.9492,3.9494,3.9513,3.9598,3.9636,3.9699,3.9723,3.9724,3.9826,3.9812,3.9792,3.975,3.9835,3.9873,3.9889,3.9692,3.9691,3.969,3.9689,0,0,3.9264,3.9335,3.9353,3.9383,3.9439,3.9488,3.9557,3.9619,3.9654,3.97,3.9758,3.9842,3.9824,3.9859,3.9865,3.9912,4.0002,3.9886,3.9887,3.9908,4.0118,4.0134,4.0151,3.9995,3.9998,4.0,4.0114,0,3.9368,3.949,3.9501,3.961,3.9669,3.9661,3.9721,3.9762,3.9782,3.9835,3.9857,3.9917,3.9888,3.9909,3.9956,3.9981,4.0044,3.9973,4.0051,4.0053,4.004,4.0171,4.0188,4.0293,4.0129,4.0131,4.0133,0,3.9506,3.9558,3.9673,3.9723,3.9748,3.9802,3.9861,3.9911,3.9958,3.9969,4.001,4.0009,4.0081,4.0036,4.0135,4.0087,4.0119,4.0136,4.0141,4.0149,4.0099,4.0184,4.0327,4.0343,4.0156,4.0155,4.0153,0,3.9584,3.9682,3.9764,3.979,3.9849,3.9888,3.9914,3.9959,3.9996,4.0047,4.0072,4.013,4.0163,4.0209,4.0225,4.019,4.0324,4.028,4.0336,4.0336,4.0366,4.0364,4.0517,4.0384,4.0384,4.0384,4.0383,0,3.97,3.9772,3.98,3.9851,3.9931,3.9944,4.0022,4.0047,4.0087,4.0142,4.0138,4.0191,4.0208,4.0263,4.0276,4.0357,4.0371,4.0383,4.0386,4.0385,4.0383,4.0407,4.0401,4.0388,4.0387,4.0386,4.0385,0,3.9801,3.9823,3.9912,3.9962,3.9976,4.0033,4.0075,4.0125,4.0144,4.0215,4.0232,4.0263,4.0329,4.0349,4.0427,4.0436,4.0531,4.0527,4.0516,4.0517,4.0572,4.0567,4.0747,4.0772,4.0621,4.0623,4.0624,0,3.9875,3.993,3.9985,4.0023,4.0051,4.0111,4.015,4.0164,4.0205,4.0263,4.0306,4.0371,4.0423,4.0528,4.0558,4.0618,4.0616,4.0675,4.0625,4.0623,4.0619,4.0616,4.0623,4.0684,4.0686,4.0687,4.0688,0,4.0004,4.0012,4.0068,4.0128,4.0174,4.0222,4.0268,4.0299,4.032,4.0366,4.0433,4.0474,4.0555,4.062,4.0682,4.0709,4.0704,4.0704,4.072,4.072,4.0712,4.0719,4.0543,4.07,4.0699,4.0698,4.0697,4.0697,4.0094,4.0143,4.0191,4.0254,4.029,4.0334,4.0383,4.0409,4.0466,4.0533,4.0538,4.0611,4.0658,4.0741,4.0772,4.083,4.0813,4.0836,4.0842,4.0848,4.0854,4.0702,4.0841,4.084,4.084,4.084,4.084,0,4.0224,4.0255,4.0312,4.0378,4.0427,4.0417,4.0468,4.0511,4.0575,4.0619,4.0672,4.075,4.0813,4.0849,4.0912,4.0952,4.0951,4.0968,4.0966,4.0973,4.0864,4.0845,4.0968,4.0968,4.0968,4.0968,4.0968,4.0968,4.0298,4.0381,4.0396,4.0497,4.0527,4.0599,4.063,4.067,4.0706,4.0794,4.0847,4.0869,4.091,4.0977,4.1035,4.1044,4.1068,4.1088,4.1095,4.0993,4.098,4.0968,4.0949,4.1092,4.1093,4.1199,4.12,4.12]}]]